Showing default

ENMAP, 52159

Orbit data source: Space-Track

ENMAP, 52159 is a payload satellite owned by DLR (DE) in SSO that was launched on Fri, 01 Apr 2022 UTC via an FALCON 9 launch vehicle from the Air Force Eastern Test Range (AFETR). Payload-class satellites include a variety of spacecraft equipped with specific instruments for various scientific and technological missions. These include communications satellites like Starlink; space stations such as the ISS; scientific satellites like the Hubble; Earth observation satellites from companies like Planet Labs, Umbra, and HawkEye 360; GPS; miniature CubeSats for education and research; and military/defense satellites.

Loading next visibility...
Identifier
52159, 2022-033C
Orbit
SSO
Country
Flag of DEDE / GER
Related business
Manufacturer
KTHR/OHB
Mission
Operational Civil Imaging
Bus & Motor
ENMAP, AOCS
Mass
916 kg wet, ~857 kg dry
Launch date (UTC)
2022-04-01 (4 years ago)
Launch vehicle
FALCON 9
Launch site
Air Force Eastern Test Range (AFETR)
Object type
Payload
Rocket body
Debris
Shape & HBR
Box + 1 Pan, 2.0 m
Radar Cross Section
5.352 m², Large (>1 m²)

Expand to show TLE details & history
Last TLE update: 7 hours ago

TLE from 7 hours ago
0 ENMAP
1 52159U 22033C   25349.99995520  .00000833  00000-0  13151-3 0  9991
2 52159  97.9797  69.8664 0001333  82.6846 277.4515 14.74952645199653
Epoch: 2025-12-15T23:59Z
TLE epoch observation values (Epoch: 2025-12-15T23:59:56.129Z)
Latitude
0.00005°
Longitude
-15.00793°
Altitude
648.192 km
Speed
7.534 km/s
True Right ascension
04h 39m 27s
True Declination
0° 00' 00"
Sunlit
Object was in full shadow at epoch
Visualization orbit readout
Latitude
Unknown
Longitude
Unknown
Altitude
Unknown
Speed
Unknown
Apparent Right ascension
Unknown
Apparent Declination
Unknown
Sunlit
N/A
Visualization observer readout
Local Sidereal Time
05:21:14
Azimuth
Unknown
Elevation
Unknown
Doppler factor
Unknown
Orbital elements
Apogee altitude
643.289 km
Perigee altitude
641.417 km
Semi-major axis
7,020.49 km
Eccentricity
0.00013
Inclination
97.9797°
RAAN
69.8664°
Arg. of periapsis
82.6846°
True anomaly
277.43635°
Mean anomaly
277.4515°
Eccentric anomaly
277.44393°
Mean motion
3.68971 °/min
Orbital period
97.57 mins
BSTAR
0.00013151
Loading maneuver chart data...
Computing Atmospheric mass density...
Loading historical data...
Loading historical data...
Loading historical data...
Loading historical data...
Loading historical data...
Loading historical data...
Loading historical data...

Documentation

Showing up to 5 results
|